TimeGMT,TemperatureF,Dew PointF,Humidity,Sea Level PressureIn,VisibilityMPH,Wind Direction,Wind SpeedMPH,Gust SpeedMPH,PrecipitationIn,Events,Conditions,WindDirDegrees,DateUTC
12:50 AM,44.6,42.8,93,29.83,6.2,WSW,6.9,-,N/A,Rain,Rain,250,2013-02-01 00:50:00
1:50 AM,44.6,44.6,100,29.80,3.1,West,4.6,-,N/A,Rain,Rain,260,2013-02-01 01:50:00
2:50 AM,46,45,95,29.76,2,WSW,4.6,,,Rain,Rain,250,2013-02-01 02:50:00
2:50 AM,46.4,44.6,93,29.74,1.9,WSW,4.6,-,N/A,Rain,Rain,250,2013-02-01 02:50:00
3:50 AM,48.2,46.4,93,29.68,3.7,WSW,13.8,28.8,N/A,,Mostly Cloudy,240,2013-02-01 03:50:00
4:50 AM,50.0,46.4,87,29.62,3.7,WSW,23.0,36.8,N/A,,Mostly Cloudy,240,2013-02-01 04:50:00
5:50 AM,48,47,96,29.63,2,West,15.0,,,Rain,Light Rain,270,2013-02-01 05:50:00
5:50 AM,48.2,46.4,93,29.62,1.9,West,15.0,28.8,N/A,Rain,Light Rain,270,2013-02-01 05:50:00
6:50 AM,42.8,42.8,100,29.62,2.5,North,11.5,-,N/A,,Light Drizzle,10,2013-02-01 06:50:00
7:50 AM,42.8,41.0,93,29.62,5.0,North,10.4,-,N/A,,Light Drizzle,360,2013-02-01 07:50:00
8:50 AM,43,42,94,29.66,6,NNW,12.7,,,Rain,Light Drizzle,340,2013-02-01 08:50:00
8:50 AM,42.8,42.8,100,29.65,6.2,NNW,12.7,-,N/A,,Mostly Cloudy,340,2013-02-01 08:50:00
9:50 AM,44.6,41.0,87,29.65,5.6,NNW,12.7,-,N/A,,Scattered Clouds,330,2013-02-01 09:50:00
10:50 AM,44.6,41.0,87,29.65,6.2,NNW,13.8,-,N/A,,Scattered Clouds,330,2013-02-01 10:50:00
11:50 AM,47,40,71,29.67,16,NNW,13.8,,,,Partly Cloudy,330,2013-02-01 11:50:00
11:50 AM,46.4,41.0,81,29.65,6.2,NNW,13.8,-,N/A,,Scattered Clouds,330,2013-02-01 11:50:00
12:50 PM,46.4,39.2,76,29.65,6.2,NW,13.8,-,N/A,,Overcast,310,2013-02-01 12:50:00
1:50 PM,46.4,39.2,76,29.62,6.2,NW,13.8,25.3,N/A,,Overcast,310,2013-02-01 13:50:00
2:50 PM,47,40,67,29.64,16,NW,15.0,,,,Overcast,310,2013-02-01 14:50:00
2:50 PM,46.4,39.2,76,29.62,6.2,NW,15.0,-,N/A,,Overcast,310,2013-02-01 14:50:00
3:50 PM,46.4,39.2,76,29.62,6.2,NW,16.1,27.6,N/A,,Overcast,310,2013-02-01 15:50:00
4:50 PM,46.4,39.2,76,29.62,6.2,NW,16.1,27.6,N/A,,Mostly Cloudy,310,2013-02-01 16:50:00
5:50 PM,46,40,71,29.63,12,NW,20.7,,,,Overcast,320,2013-02-01 17:50:00
5:50 PM,46.4,39.2,76,29.62,6.2,NW,20.7,-,N/A,,Overcast,320,2013-02-01 17:50:00
6:50 PM,46.4,41.0,81,29.62,6.2,NNW,28.8,40.3,N/A,Rain,Light Rain Showers,330,2013-02-01 18:50:00
7:50 PM,44.6,39.2,81,29.65,6.2,North,21.9,-,N/A,,Overcast,350,2013-02-01 19:50:00
8:50 PM,45,37,66,29.70,12,North,26.5,,,Rain,Light Rain Showers,350,2013-02-01 20:50:00
8:50 PM,44.6,37.4,76,29.68,6.2,North,26.5,38.0,N/A,,Scattered Clouds,350,2013-02-01 20:50:00
9:50 PM,44.6,37.4,76,29.71,6.2,North,29.9,41.4,N/A,,Mostly Cloudy,350,2013-02-01 21:50:00
10:50 PM,44.6,37.4,76,29.74,6.2,North,32.2,43.7,N/A,,Overcast,350,2013-02-01 22:50:00
11:50 PM,44,37,69,29.81,12,North,31.1,,,,Partly Cloudy,350,2013-02-01 23:50:00
11:50 PM,44.6,37.4,76,29.80,6.2,North,31.1,42.6,N/A,,Overcast,350,2013-02-01 23:50:00